Pueblo, CO

2:52 PM MST on February 21, 2017 (GMT -0700)
Pueblo Memorial

Weather History for KPUB - January, 2013

Change the Weather History Date:

Monday, January 28, 2013

  Actual Average Record
Temperature  
Mean Temperature 44 °F 31 °F  
Max Temperature 64 °F 48 °F 73 °F (1986)
Min Temperature 23 °F 14 °F -29 °F (1948)
Degree Days  
Heating Degree Days 21 34  
Month to date heating degree days 978 966  
Since 1 July heating degree days 3200 3329  
Cooling Degree Days 0 0  
Month to date cooling degree days 0 0  
Year to date cooling degree days 0 0  
Moisture  
Dew Point 21 °F    
Average Humidity 48    
Maximum Humidity 78    
Minimum Humidity 17    
Precipitation  
Precipitation 0.00 in 0.01 in 0.30 in (1891)
Month to date precipitation 0.02 0.32  
Year to date precipitation 0.02 0.32  
Snow  
Snow 0.00 in 0.20 in 4.50 in (1891)
Month to date snowfall 1.0 5.9  
Since 1 July snowfall 6.6 17.4  
Snow Depth 0.00 in    
Sea Level Pressure  
Sea Level Pressure 29.60 in    
Wind  
Wind Speed 11 mph (West)    
Max Wind Speed 39 mph    
Max Gust Speed 48 mph    
Visibility 9 miles    
Events      
T = Trace of Precipitation, MM = Missing Value Source: NWS Daily Summary

Daily Weather History Graph

Daily Weather History Graph

Search for Another Location

Airport or City:

Trip Planner

Search our weather history database for the weather conditions in past years. The results will help you decide how hot, cold, wet, or windy it might be!

Date:

Astronomy

Jan. 28, 2013 Rise Set
Actual Time 7:06 AM MST 5:16 PM MST
Civil Twilight 6:37 AM MST 5:44 PM MST
Nautical Twilight 6:06 AM MST 6:16 PM MST
Astronomical Twilight 5:34 AM MST 6:47 PM MST
Moon 7:11 PM MST (1/28) 7:35 AM MST (1/28)
Length of Visible Light 11h 06m
Length of Day
10h 10m
Full, 97% of the Moon is Illuminated
Jan 28
Full
Feb 3
Last Quarter
Feb 10
New
Feb 17
First Quarter
Feb 25
Full

Hourly Weather History & Observations

Time (MST) Temp. Windchill Dew Point Humidity Pressure Visibility Wind Dir Wind Speed Gust Speed Precip Events Conditions
12:53 AM 32.0 °F 22.1 °F 21.0 °F 64% 29.69 in 10.0 mi West 13.8 mph - N/A   Clear
1:53 AM 30.0 °F 25.2 °F 19.9 °F 66% 29.66 in 10.0 mi NW 4.6 mph - N/A   Partly Cloudy
2:53 AM 30.0 °F 23.2 °F 19.9 °F 66% 29.65 in 10.0 mi WNW 6.9 mph - N/A   Clear
3:53 AM 27.0 °F 19.5 °F 19.0 °F 72% 29.65 in 10.0 mi NW 6.9 mph - N/A   Clear
4:53 AM 28.0 °F 24.2 °F 21.0 °F 75% 29.63 in 10.0 mi SSW 3.5 mph - N/A   Clear
5:53 AM 26.1 °F 21.9 °F 19.0 °F 75% 29.65 in 10.0 mi WSW 3.5 mph - N/A   Clear
6:53 AM 24.1 °F - 17.1 °F 75% 29.67 in 10.0 mi Calm Calm - N/A   Clear
7:53 AM 25.0 °F - 17.1 °F 72% 29.68 in 10.0 mi Calm Calm - N/A   Clear
8:53 AM 36.0 °F 33.3 °F 21.0 °F 55% 29.62 in 10.0 mi NNW 3.5 mph - N/A   Clear
9:53 AM 44.1 °F - 24.1 °F 45% 29.60 in 10.0 mi Calm Calm - N/A   Clear
10:53 AM 52.0 °F - 25.0 °F 35% 29.56 in 10.0 mi Calm Calm - N/A   Clear
11:48 AM 62.6 °F - 24.8 °F 24% 29.55 in 10.0 mi SW 27.6 mph 35.7 mph N/A   Squalls
11:53 AM 63.0 °F - 24.1 °F 23% 29.49 in 10.0 mi SW 29.9 mph 35.7 mph N/A   Clear
12:03 PM 62.6 °F - 24.8 °F 24% 29.54 in 10.0 mi SW 23.0 mph 34.5 mph N/A   Clear
12:53 PM 63.0 °F - 21.0 °F 20% 29.45 in 10.0 mi WSW 28.8 mph 35.7 mph N/A   Partly Cloudy
1:53 PM 62.1 °F - 18.0 °F 18% 29.47 in 8.0 mi SW 20.7 mph 32.2 mph N/A   Scattered Clouds
2:42 PM 60.8 °F - 15.8 °F 17% 29.53 in 1.8 mi SW 33.4 mph 48.3 mph N/A   Haze
2:50 PM 60.8 °F - 14.0 °F 16% 29.53 in 2.0 mi WSW 31.1 mph 44.9 mph N/A   Haze
2:53 PM 60.1 °F - 15.1 °F 17% 29.49 in 5.0 mi SW 31.1 mph 44.9 mph N/A   Haze
3:00 PM 60.8 °F - 14.0 °F 16% 29.54 in 5.0 mi WSW 28.8 mph 41.4 mph N/A   Haze
3:34 PM 57.2 °F - 15.8 °F 20% 29.54 in 9.0 mi WSW 29.9 mph 38.0 mph N/A   Scattered Clouds
3:53 PM 57.9 °F - 16.0 °F 19% 29.52 in 10.0 mi SW 26.5 mph 39.1 mph N/A   Partly Cloudy
4:53 PM 54.0 °F - 19.9 °F 26% 29.55 in 10.0 mi WSW 19.6 mph - N/A   Clear
5:14 PM 46.4 °F 38.7 °F 24.8 °F 43% 29.60 in 10.0 mi WNW 20.7 mph 31.1 mph N/A   Clear
5:53 PM 45.0 °F 36.9 °F 26.1 °F 48% 29.62 in 10.0 mi WNW 20.7 mph - N/A   Clear
6:53 PM 39.9 °F 34.5 °F 28.0 °F 63% 29.68 in 10.0 mi WNW 8.1 mph - N/A   Clear
7:53 PM 36.0 °F 28.5 °F 26.1 °F 67% 29.71 in 10.0 mi North 10.4 mph - N/A   Clear
8:53 PM 34.0 °F 28.0 °F 25.0 °F 70% 29.69 in 10.0 mi East 6.9 mph - N/A   Clear
9:53 PM 33.1 °F 30.0 °F 25.0 °F 72% 29.69 in 10.0 mi Variable 3.5 mph - N/A   Clear
10:53 PM 30.9 °F - 25.0 °F 79% 29.68 in 10.0 mi Calm Calm - N/A   Clear
11:53 PM 28.0 °F 20.0 °F 23.0 °F 81% 29.65 in 10.0 mi North 8.1 mph - N/A   Mostly Cloudy